Regional Weather Roundup
Issued by NWS Cleveland, OH

Home | Current Version | Previous Version | Graphics & Text | Print | Product List | Glossary On
Versions: 1 2 3 4 5 6 7 8 9 10 11 12 13 14 15 16 17 18 19 20 21 22 23 24 25 26 27 28 29 30 31 32 33 34 35 36 37 38 39 40 41 42 43 44 45 46 47 48 49 50
000
ASUS41 KCLE 201800
RWRCLE
OHIO REGIONAL WEATHER ROUNDUP
NATIONAL WEATHER SERVICE WILMINGTON, OH
200 PM EDT WED AUG 20 2014

NOTE: "FAIR" INDICATES FEW OR NO CLOUDS BELOW 12,000 FEET WITH NO
SIGNIFICANT WEATHER AND/OR OBSTRUCTIONS TO VISIBILITY.

OHZ001>008-015>018-024>027-034-035-043-044-201900-
   NORTHWEST OHIO

CITY           SKY/WX    TMP DP  RH WIND       PRES   REMARKS
DEFIANCE       PTSUNNY   81  65  58 VRB7      29.92R
FINDLAY        MOSUNNY   82  66  58 W13       29.91S
TOLEDO EXPRESS CLOUDY    81  64  56 W15       29.89S
TOLEDO METCALF PTSUNNY   84  65  52 W13       29.89S
LIMA           MOSUNNY   83  68  60 SW15      29.94R
$$

OHZ009>014-019>023-028>033-038-089-201900-
   NORTHEAST OHIO

CITY           SKY/WX    TMP DP  RH WIND       PRES   REMARKS
CLE-HOPKINS    PTSUNNY   79  69  71 S10       29.92R
CLE-LAKEFRONT  PTSUNNY   81  69  67 S13G20    29.88R
CUY CO. ARPT   MOSUNNY   81  70  69 SW18      29.91R
LORAIN-ELYRIA  PTSUNNY   84  70  62 W12       29.91R
ASHTABULA      MOSUNNY   78  67  68 S12       29.91S
AKRON-CANTON   CLOUDY    77  67  71 S13       29.94R
WOOSTER        NOT AVBL
MANSFIELD      PTSUNNY   81  68  64 SW10G20   29.94R
YOUNGSTOWN     PTSUNNY   78  67  68 SW14      29.93S
$$

OHZ042-051>053-060>062-070>072-077>081-201900-
  SOUTHWEST OHIO

CITY           SKY/WX    TMP DP  RH WIND       PRES   REMARKS
CINC-COVINGTON PTSUNNY   85  67  54 W9        29.97F
CINC-LUNKEN    MOSUNNY   87  66  49 SW10      29.95F
HAMILTON       MOSUNNY   86  69  56 W9G17     29.96S HX  90
DAYTON         NOT AVBL
WRIGHT-PAT AFB MOSUNNY   86  64  48 SW15      29.95R
DAYTON GENERAL PTSUNNY   84  67  56 SW13      29.96R
WILMINGTON     MOSUNNY   84  67  56 SW9       29.96S
$$

OHZ036-037-039>041-045>050-054>059-063>069-073>076-082>088-201900-
  CENTRAL AND SOUTHEAST OHIO

CITY           SKY/WX    TMP DP  RH WIND       PRES   REMARKS
COLUMBUS       MOSUNNY   85  68  56 S13       29.94R
OSU AIRPORT    MOSUNNY   85  65  51 W10G22    29.94R
BOLTON FIELD   PTSUNNY   81  70  69 W12       29.95S
RICKENBACK AFB NOT AVBL
NEWARK         MOSUNNY   81  69  67 S9        29.94S
MARION         MOSUNNY   82  68  62 W10       29.94R
LANCASTER      MOSUNNY   81  68  64 SW7       29.96R
ZANESVILLE     PTSUNNY   81  65  58 S13       29.95S
NEW PHILLY     PTSUNNY   79  69  71 VRB6      29.95S
$$



USA.gov is the U.S. government's official web portal to all federal, state and local government web resources and services.